Location: Unspecified
(42.3650°N, 71.1030°W)
Time: 11:43:26
(UTC+00:00)

Transit 2A - Pass Details

Date: 29 June 2024
Orbit: 591 x 960 km, 66.7° (Epoch: 17 July)

Event Time Altitude Azimuth Distance (km) Brightness Sun altitude
Rises 01:31:11 0° 336° (NNW) 3,523 10.9 -10.3°
Reaches altitude 10° 01:34:11 10° 350° (N) 2,626 9.7 -10.7°
Maximum altitude 01:39:07 24° 43° (NE) 1,854 8.0 -11.3°
Drops below altitude 10° 01:44:08 10° 96° (E) 2,692 8.4 -11.9°
Enters shadow 01:44:51 - 99° (E) 2,893 8.5 -12.0°
